Weather reports worldwide

Advertisment
Fürstenzell, Germany (10895): temperature & dewpoint: 10.09.2019 05:00:00 - 16.09.2019 05:00:00 (CEST)Fürstenzell, Germany (10895): temperature 5cm & temperature -5cm: 10.09.2019 05:00:00 - 16.09.2019 05:00:00 (CEST)Fürstenzell, Germany (10895): temperature -20cm & temperature -100cm: 10.09.2019 05:00:00 - 16.09.2019 05:00:00 (CEST)Fürstenzell, Germany (10895): wind speed & gusts: 10.09.2019 05:00:00 - 16.09.2019 05:00:00 (CEST)Fürstenzell, Germany (10895): wind direction: 10.09.2019 05:00:00 - 16.09.2019 05:00:00 (CEST)Fürstenzell, Germany (10895): reduced air pressure: 10.09.2019 05:00:00 - 16.09.2019 05:00:00 (CEST)Fürstenzell, Germany (10895): visibility: 10.09.2019 05:00:00 - 16.09.2019 05:00:00 (CEST)Fürstenzell, Germany (10895): sunshine duration: 10.09.2019 05:00:00 - 16.09.2019 05:00:00 (CEST)Fürstenzell, Germany (10895): precipitation: 10.09.2019 05:00:00 - 16.09.2019 05:00:00 (CEST)
Date & Time tt [°C] td [°C] tt 5cm [°C] tt -5cm [°C] tt -20cm [°C] tt -100cm [°C] ff [km/h] ff [kn] fx [km/h] fx [kn] dd ppp [hPa] vv [km] sd [min] rr [mm]
16.09.2019 05:00:00 13,0 12,6 12,3 15,4 18,3 17,7 6 3 8 4 NNE 1021,0 1,8 0 0,0
16.09.2019 04:00:00 14,1 13,0 12,7 15,7 18,6 17,7 4 2 8 4 E 1020,9 7 0 0,0
16.09.2019 03:00:00 13,4 13,0 12,1 16,1 18,9 17,7 6 3 8 4 NE 1021,5 4,1 0 0,0
16.09.2019 02:00:00 14,1 13,1 13,0 16,5 19,2 17,7 6 3 8 5 NE 1021,4 4,5 0 0,0
16.09.2019 01:00:00 14,9 13,9 13,1 16,9 19,5 17,7 5 3 7 4 NE 1021,7 8 0 0,0
16.09.2019 00:00:00 15,6 13,9 13,8 17,5 19,9 17,7 5 3 7 4 ENE 1021,5 14 0 0,0
15.09.2019 23:00:00 16,6 14,4 13,5 18,1 20,2 17,7 5 3 8 5 NE 1021,2 18 0 0,0
15.09.2019 22:00:00 18,9 14,5 13,2 18,9 20,5 17,7 5 3 6 4 SW 1021,0 19 0 0,0
15.09.2019 21:00:00 19,4 14,6 13,4 20,0 20,8 17,7 4 2 5 3 S 1020,8 29 0 0,0
15.09.2019 20:00:00 19,8 14,6 14,6 21,4 20,9 17,7 3 2 8 5 S 1020,7 32 19 0,0
15.09.2019 19:00:00 21,5 14,6 20,7 23,1 20,8 17,7 6 3 10 6 SE 1020,2 34 60 0,0
15.09.2019 18:00:00 22,9 13,6 24,5 24,6 20,5 17,7 5 3 11 6 SSW 1020,5 30 60 0,0
15.09.2019 17:00:00 23,4 13,9 25,1 26,0 20,0 17,7 5 3 17 9 WSW 1020,8 49 60 0,0
15.09.2019 16:00:00 23,3 13,9 26,9 26,7 19,3 17,7 5 3 13 7 S 1021,4 30 60 0,0
15.09.2019 15:00:00 22,6 12,4 27,1 26,5 18,6 17,7 7 4 17 9 WSW 1022,3 24 60 0,0
15.09.2019 14:00:00 21,8 12,4 25,0 25,4 17,9 17,7 6 4 13 7 SSE 1023,2 20 60 0,0
15.09.2019 13:00:00 21,2 11,7 25,0 23,5 17,2 17,7 5 3 11 6 SW 1023,9 28 60 0,0
15.09.2019 12:00:00 19,1 11,5 22,4 21,1 16,7 17,7 5 3 15 8 SSE 1024,9 27 60 0,0
15.09.2019 11:00:00 18,3 12,4 20,7 18,7 16,4 17,7 7 4 15 8 ESE 1025,5 30 60 0,0
15.09.2019 10:00:00 16,5 11,7 17,0 16,4 16,3 17,7 7 4 16 9 SE 1026,0 25 60 0,0
15.09.2019 09:00:00 14,4 11,1 13,0 14,4 16,4 17,7 4 2 9 5 S 1026,4 18 59 0,0
15.09.2019 08:00:00 11,9 10,6 11,1 13,0 16,7 17,6 4 2 8 4 NE 1027,0 11 51 0,0
15.09.2019 07:00:00 10,6 10,2 8,8 13,0 17,0 17,6 6 3 11 6 ENE 1027,3 13 0 0,0
15.09.2019 06:00:00 10,9 10,7 9,3 13,4 17,3 17,6 8 4 10 6 ENE 1027,4 4,6 0 0,0
15.09.2019 05:00:00 11,2 10,9 9,1 13,8 17,6 17,6 7 4 9 5 NE 1027,7 9 0 0,0
15.09.2019 04:00:00 11,9 10,9 9,6 14,3 17,9 17,6 6 3 8 4 ENE 1027,6 17 0 0,0
15.09.2019 03:00:00 12,5 11,0 10,0 14,8 18,2 17,6 5 3 10 5 ENE 1028,1 18 0 0,0
15.09.2019 02:00:00 14,4 11,2 12,8 15,4 18,5 17,6 10 5 16 9 ESE 1028,2 26 0 0,0
15.09.2019 01:00:00 13,4 11,5 11,5 15,9 18,8 17,6 6 4 10 5 E 1029,1 23 0 0,0
15.09.2019 00:00:00 13,9 11,7 11,8 16,4 19,1 17,6 6 4 12 7 E 1029,2 25 0 0,0
14.09.2019 23:00:00 14,5 12,1 12,1 17,1 19,4 17,6 9 5 22 12 ENE 1029,4 26 0 0,0
14.09.2019 22:00:00 16,8 12,2 15,3 17,9 19,7 17,6 16 9 23 12 ESE 1028,7 32 0 0,0
14.09.2019 21:00:00 16,9 12,8 15,2 19,0 20,0 17,6 8 4 13 7 E 1028,6 34 0 0,0
14.09.2019 20:00:00 16,9 13,1 13,9 20,1 20,1 17,6 6 3 17 9 E 1028,5 31 4 0,0
14.09.2019 19:00:00 19,1 13,3 19,5 21,6 20,1 17,6 6 3 22 12 E 1027,8 37 52 0,0
14.09.2019 18:00:00 20,0 13,1 20,9 22,8 19,9 17,6 9 5 17 9 E 1027,5 31 35 0,0
14.09.2019 17:00:00 21,4 13,0 24,1 23,8 19,6 17,6 5 3 13 7 NNE 1027,7 39 55 0,0
14.09.2019 16:00:00 20,4 13,5 22,7 24,1 19,2 17,6 8 4 18 10 E 1028,4 30 36 0,0
14.09.2019 15:00:00 21,1 12,8 25,5 23,9 18,7 17,6 10 5 19 10 E 1028,9 16 37 0,0
14.09.2019 14:00:00 21,2 13,8 25,8 23,2 18,3 17,6 10 5 19 10 ESE 1029,3 18 37 0,0
14.09.2019 13:00:00 19,8 12,6 24,1 22,0 17,9 17,6 10 6 23 13 E 1029,8 19 37 0,0
14.09.2019 12:00:00 19,4 12,7 22,1 20,4 17,6 17,6 15 8 26 14 E 1030,6 24 39 0,0
14.09.2019 11:00:00 18,8 13,3 20,8 18,4 17,5 17,6 14 7 24 13 E 1031,0 28 5 0,0
14.09.2019 10:00:00 17,4 12,8 18,3 17,8 17,4 17,6 16 9 22 12 ENE 1031,3 29 24 0,0
14.09.2019 09:00:00 16,5 13,8 17,1 16,8 17,5 17,6 11 6 18 10 NE 1031,1 22 5 0,0
14.09.2019 08:00:00 15,3 14,2 15,4 16,3 17,6 17,6 11 6 14 8 NE 1031,1 14 0 0,0
14.09.2019 07:00:00 14,9 14,4 14,6 16,3 17,7 17,6 6 3 13 7 ENE 1031,0 9 0 0,0
14.09.2019 06:00:00 15,1 14,4 15,0 16,3 17,9 17,6 8 4 11 6 ENE 1030,7 11 0 0,0
14.09.2019 05:00:00 14,8 14,1 14,2 16,4 18,0 17,6 7 4 10 6 NE 1030,7 8 0 0,0
14.09.2019 04:00:00 15,2 14,3 14,7 16,8 18,2 17,6 9 5 11 6 NE 1030,7 13 0 0,0
14.09.2019 03:00:00 16,7 14,0 14,5 17,1 18,3 17,6 4 2 8 4 NE 1030,5 27 0 0,0
14.09.2019 02:00:00 16,9 14,3 16,4 17,5 18,5 17,6 6 4 8 5 NNE 1030,7 13 0 0,0
14.09.2019 01:00:00 17,5 14,5 15,8 17,7 18,6 17,6 3 2 6 3 N 1030,6 24 0 0,0
14.09.2019 00:00:00 17,7 14,4 16,7 18,0 18,8 17,6 4 2 8 5 SW 1030,9 27 0 0,0
13.09.2019 23:00:00 18,3 14,4 17,4 18,2 18,9 17,6 7 4 10 5 NNE 1030,7 25 0 0,0
13.09.2019 22:00:00 18,8 13,8 17,7 18,7 19,1 17,6 9 5 12 7 N 1030,5 44 0 0,0
13.09.2019 21:00:00 19,5 13,6 18,5 19,2 19,2 17,6 9 5 12 6 NW 1030,2 44 0 0,0
13.09.2019 20:00:00 19,6 13,8 18,7 19,9 19,3 17,6 9 5 11 6 NW 1030,1 38 0 0,0
13.09.2019 19:00:00 19,8 14,0 19,2 20,8 19,2 17,6 8 5 15 8 N 1029,8 47 22 0,0
13.09.2019 18:00:00 21,4 14,2 23,2 21,6 19,1 17,6 10 5 19 10 NNW 1029,6 42 51 0,0
13.09.2019 17:00:00 21,0 14,0 21,2 22,3 18,9 17,6 10 5 19 10 NW 1029,8 32 33 0,0
13.09.2019 16:00:00 22,1 14,2 25,3 22,9 18,5 17,6 13 7 27 14 WNW 1029,9 13 51 0,0
13.09.2019 15:00:00 21,7 14,5 24,8 23,0 18,1 17,7 16 8 26 14 WNW 1030,3 13 39 0,0
13.09.2019 14:00:00 20,8 14,5 22,7 22,9 17,5 17,7 8 5 26 14 WNW 1030,6 16 37 0,0
13.09.2019 13:00:00 21,3 14,2 25,1 22,7 17,0 17,7 13 7 25 14 W 1030,6 17 60 0,0
13.09.2019 12:00:00 20,2 13,9 23,5 21,3 16,4 17,7 11 6 19 10 WNW 1030,8 14 60 0,0
13.09.2019 11:00:00 18,5 13,8 20,4 19,4 16,1 17,7 8 4 14 8 SSW 1031,3 11 60 0,0
13.09.2019 10:00:00 16,8 13,1 17,6 17,2 15,9 17,7 4 2 7 4 SSW 1031,6 15 60 0,0
13.09.2019 09:00:00 14,9 12,8 14,6 14,9 15,9 17,7 3 2 5 3 ENE 1032,0 12 60 0,0
13.09.2019 08:00:00 13,4 12,0 12,3 13,6 16,1 17,7 4 2 5 3 E 1032,0 9 41 0,0
13.09.2019 07:00:00 11,9 11,2 10,6 13,8 16,3 17,7 4 2 5 3 NE 1032,1 7 0 0,0
13.09.2019 06:00:00 13,1 11,8 11,2 14,0 16,4 17,7 4 2 7 4 S 1031,7 13 0 0,0
13.09.2019 05:00:00 12,2 11,5 11,7 14,5 16,6 17,7 4 2 6 4 NE 1031,9 9 0 0,0
13.09.2019 04:00:00 13,0 11,9 12,7 14,7 16,7 17,7 5 3 8 4 NE 1031,6 12 0 0,0
13.09.2019 03:00:00 13,4 11,9 12,6 14,8 16,9 17,7 5 3 6 4 E 1031,6 14 0 0,0
13.09.2019 02:00:00 12,8 11,7 12,4 14,9 17,1 17,7 5 3 6 4 NE 1032,0 12 0 0,0
13.09.2019 01:00:00 13,5 12,3 13,3 15,1 17,4 17,7 4 2 8 5 NE 1031,8 12 0 0,0
13.09.2019 00:00:00 14,8 12,3 11,6 15,3 17,7 17,7 5 3 10 5 SSE 1031,6 17 0 0,0
12.09.2019 23:00:00 15,7 12,2 12,2 15,9 17,9 17,7 5 3 8 5 S 1031,3 21 0 0,0
12.09.2019 22:00:00 16,8 12,2 12,1 16,7 18,2 17,7 5 3 8 5 SSW 1030,9 22 0 0,0
12.09.2019 21:00:00 17,8 11,5 12,6 17,7 18,3 17,8 5 3 7 4 SSW 1030,5 26 0 0,0
12.09.2019 20:00:00 18,3 11,9 14,3 19,0 18,4 17,8 3 2 4 2 SSW 1030,1 17 0 0,0
12.09.2019 19:00:00 19,1 12,7 17,5 20,1 18,3 17,8 0 0 5 3 N 1029,9 30 40 0,0
12.09.2019 18:00:00 20,4 12,1 20,9 21,0 18,0 17,8 4 2 11 6 NW 1029,6 33 17 0,0
12.09.2019 17:00:00 20,3 11,2 20,5 22,1 17,6 17,8 8 5 20 11 WSW 1029,9 31 50 0,0
12.09.2019 16:00:00 20,5 10,3 23,8 22,4 17,1 17,8 10 5 21 11 WSW 1030,0 17 58 0,0
12.09.2019 15:00:00 20,7 11,5 24,1 22,0 16,5 17,8 9 5 17 9 WSW 1030,3 40 46 0,0
12.09.2019 14:00:00 19,1 12,1 22,3 20,7 16,0 17,8 6 3 12 6 W 1030,9 16 26 0,0
12.09.2019 13:00:00 17,4 11,7 20,2 19,5 15,5 17,8 4 2 10 5 WSW 1031,6 14 8 0,0
12.09.2019 12:00:00 16,3 10,8 19,0 17,8 15,2 17,8 5 3 9 5 SSW 1031,8 16 5 0,0
12.09.2019 11:00:00 14,5 11,9 15,1 16,2 15,0 17,8 6 4 10 6 SSW 1032,0 10 0 0,0
12.09.2019 10:00:00 13,4 12,2 14,4 14,8 14,9 17,8 4 2 10 5 E 1031,7 10 0 0,0
12.09.2019 09:00:00 11,6 11,6 12,3 13,3 14,9 17,8 0 0 7 4 N 1031,6 2,6 0 0,0
12.09.2019 08:00:00 10,3 10,2 10,8 12,6 15,0 17,8 6 3 10 5 NE 1031,4 0,2 4 0,0
12.09.2019 07:00:00 9,8 9,5 10,0 12,2 15,2 17,9 4 2 9 5 E 1030,6 0,3 0 0,0
12.09.2019 06:00:00 9,9 9,9 9,4 12,0 15,4 17,9 4 2 7 4 SSE 1030,2 2,3 0 0,0
12.09.2019 05:00:00 8,9 8,9 8,5 12,3 15,7 17,9 5 3 11 6 ENE 1029,9 0,1 0 0,0
12.09.2019 04:00:00 10,9 10,7 8,3 12,7 15,9 17,9 4 2 8 4 W 1029,1 5 0 0,0
12.09.2019 03:00:00 10,8 10,8 10,7 13,1 16,1 17,9 6 4 12 6 SW 1029,0 0,1 0 0,0
12.09.2019 02:00:00 11,2 11,2 10,7 13,3 16,4 17,9 6 3 7 4 NE 1028,1 0,1 0 0,0
12.09.2019 01:00:00 12,5 12,4 9,0 13,8 16,7 17,9 3 1 6 3 E 1027,8 2,2 0 0,0
12.09.2019 00:00:00 13,1 12,4 9,6 14,4 16,9 17,9 3 2 8 5 SSE 1027,5 3,9 0 0,0
11.09.2019 23:00:00 15,1 12,8 12,4 15,0 17,2 17,9 5 3 11 6 SSW 1026,4 10 0 0,0
11.09.2019 22:00:00 15,4 12,8 12,3 15,7 17,4 17,9 7 4 8 5 SW 1026,0 10 0 0,0
11.09.2019 21:00:00 15,9 13,0 11,7 16,5 17,6 18,0 6 3 8 4 SSW 1025,3 12 0 0,0
11.09.2019 20:00:00 16,2 12,1 12,8 17,7 17,6 18,0 5 3 6 3 NW 1024,5 20 8 0,0
11.09.2019 19:00:00 18,2 12,6 17,2 18,9 17,4 18,0 4 2 10 5 NW 1023,6 28 50 0,0
11.09.2019 18:00:00 19,0 12,2 20,4 20,0 17,1 18,0 4 2 11 6 NNW 1022,8 31 60 0,0
11.09.2019 17:00:00 19,2 11,8 21,1 21,0 16,7 18,0 7 4 15 8 WNW 1022,7 22 60 0,0
11.09.2019 16:00:00 19,2 11,7 22,1 21,1 16,2 18,0 8 4 16 9 SW 1022,9 15 55 0,0
11.09.2019 15:00:00 17,7 11,1 19,8 20,2 15,7 18,0 8 5 14 8 SW 1023,3 19 51 0,0
11.09.2019 14:00:00 16,2 12,3 19,0 18,7 15,3 18,0 5 3 10 6 WSW 1023,6 11 20 0,0
11.09.2019 13:00:00 14,2 12,2 16,0 16,4 15,0 18,0 5 3 9 5 SW 1024,0 7 0 0,0
11.09.2019 12:00:00 13,2 11,6 14,3 15,3 14,9 18,0 5 3 8 5 NE 1024,0 7 0 0,1
11.09.2019 11:00:00 12,1 10,7 12,9 14,4 14,8 18,1 0 0 6 3 N 1024,3 8 0 0,0
11.09.2019 10:00:00 11,6 10,4 12,8 13,7 14,7 18,1 3 2 6 3 N 1023,8 6 0 0,0
11.09.2019 09:00:00 10,9 10,2 11,3 13,0 14,8 18,1 0 0 5 3 N 1023,4 7 0 0,0
11.09.2019 08:00:00 9,9 9,5 10,0 12,2 14,9 18,1 3 2 6 3 WSW 1023,0 8 0 0,0
11.09.2019 07:00:00 9,5 9,1 9,2 12,0 15,1 18,1 4 2 7 4 N 1022,4 9 0 0,0
11.09.2019 06:00:00 10,1 8,8 8,9 12,1 15,3 18,1 6 3 12 7 ENE 1021,4 23 0 0,0
11.09.2019 05:00:00 9,7 9,0 9,2 12,3 15,6 18,1 11 6 13 7 NE 1021,1 14 0 0,0
11.09.2019 04:00:00 10,0 9,3 9,3 12,7 15,8 18,2 10 5 12 6 NE 1021,3 11 0 0,0
11.09.2019 03:00:00 10,5 10,0 10,2 13,0 16,0 18,2 7 4 12 7 NE 1021,2 7 0 0,0
11.09.2019 02:00:00 10,6 9,9 10,1 13,0 16,3 18,2 11 6 13 7 NNE 1020,9 15 0 0,0
11.09.2019 01:00:00 10,6 10,0 9,6 13,4 16,6 18,2 10 6 13 7 NE 1020,7 10 0 0,0
11.09.2019 00:00:00 11,8 10,1 10,4 14,0 17,0 18,2 11 6 13 7 NE 1020,6 20 0 0,0
10.09.2019 23:00:00 12,1 10,9 10,6 14,6 17,3 18,2 7 4 10 6 NE 1020,2 18 0 0,0
10.09.2019 22:00:00 14,1 9,2 11,9 15,5 17,5 18,3 10 6 15 8 NNW 1019,6 32 0 0,0
10.09.2019 21:00:00 15,3 9,8 11,2 16,6 17,7 18,3 8 4 11 6 NW 1019,0 33 0 0,0
10.09.2019 20:00:00 15,6 10,8 12,7 18,0 17,8 18,3 6 3 7 4 W 1018,2 24 25 0,0
10.09.2019 19:00:00 17,9 10,6 17,4 19,4 17,6 18,3 3 1 4 2 S 1017,4 29 60 0,0
10.09.2019 18:00:00 19,5 10,2 20,9 20,7 17,3 18,3 3 2 9 5 SSE 1016,7 33 60 0,0
10.09.2019 17:00:00 19,7 10,5 21,1 22,0 16,8 18,3 3 1 10 5 NW 1016,7 35 60 0,0
10.09.2019 16:00:00 18,8 9,5 22,4 22,3 16,2 18,4 3 1 13 7 NNE 1016,8 30 60 0,0
10.09.2019 15:00:00 18,0 9,8 21,6 22,1 15,5 18,4 6 3 12 7 ENE 1017,0 28 59 0,0
10.09.2019 14:00:00 16,6 9,9 19,8 21,1 14,8 18,4 4 2 12 7 NNE 1017,6 23 59 0,0
10.09.2019 13:00:00 15,9 8,2 19,5 19,3 14,2 18,4 4 2 12 6 ENE 1018,0 19 60 0,0
10.09.2019 12:00:00 13,3 9,4 17,3 16,6 13,7 18,4 5 3 10 6 NE 1018,5 9 42 0,0
10.09.2019 11:00:00 9,8 8,9 12,3 14,1 13,5 18,4 4 2 10 5 S 1019,3 2,9 1 0,0
10.09.2019 10:00:00 9,3 9,1 10,6 12,9 13,4 18,5 5 3 9 5 ENE 1019,2 0,2 1 0,0
10.09.2019 09:00:00 8,7 8,6 10,0 11,6 13,4 18,5 5 3 8 4 NE 1019,1 0,2 0 0,0
10.09.2019 08:00:00 7,5 7,5 8,1 10,6 13,5 18,5 5 3 7 4 ENE 1018,8 0,1 0 0,0
10.09.2019 07:00:00 7,2 7,2 7,5 10,3 13,6 18,5 3 2 6 4 S 1018,3 0,1 0 0,0
10.09.2019 06:00:00 8,4 8,4 6,2 10,5 13,8 18,5 5 3 7 4 E 1017,6 3,2 0 0,0
10.09.2019 05:00:00 8,6 8,5 8,1 11,0 13,9 18,5 7 4 10 5 ENE 1017,4 0,1 0 0,0

tt = temperature
td = dewpoint
tt 5cm = temperature 5cm
tt -5cm = temperature -5cm
tt -20cm = temperature -20cm
tt -100cm = temperature -100cm
ff = wind speed
fx = gusts
dd = wind direction
ppp = reduced air pressure
vv = visibility
sd = sunshine duration
rr = precipitation

Next stations